Stations météo

réclame
Mon MeteoGroup
Chillingham Barns, Grande-Bretagne (99196): Température de l'air & dewpoint: 08.10.2019 19:00:00 - 14.10.2019 19:00:00 (BST)Chillingham Barns, Grande-Bretagne (99196): Quantités de précipitations: 08.10.2019 19:00:00 - 14.10.2019 19:00:00 (BST)
Date & Time tt [°C] td [°C] rr [mm]
14.10.2019 19:00:00 9,5 8,2 0,0
14.10.2019 18:00:00 10,3 8,6 0,0
14.10.2019 17:00:00 11,1 9,0 0,0
14.10.2019 16:00:00 11,6 9,1 0,0
14.10.2019 15:00:00 12,9 9,0 0,2
14.10.2019 14:00:00 12,3 8,3 0,2
14.10.2019 13:00:00 11,9 8,1 0,4
14.10.2019 12:00:00 10,8 8,1 0,0
14.10.2019 11:00:00 9,7 7,5 0,2
14.10.2019 10:00:00 8,6 7,3 0,2
14.10.2019 09:00:00 7,4 6,2 0,0
14.10.2019 08:00:00 6,4 5,5 0,2
14.10.2019 07:00:00 6,9 5,4 0,2
14.10.2019 06:00:00 6,0 4,8 0,0
14.10.2019 05:00:00 6,7 5,1 0,2
14.10.2019 04:00:00 7,7 6,4 0,2
14.10.2019 03:00:00 7,3 6,1 0,0
14.10.2019 02:00:00 7,0 6,5 0,2
14.10.2019 01:00:00 7,5 6,9 0,2
14.10.2019 00:00:00 8,8 8,4 0,2
13.10.2019 23:00:00 9,2 8,9 0,2
13.10.2019 22:00:00 9,3 9,0 0,4
13.10.2019 21:00:00 9,3 9,1 0,6
13.10.2019 20:00:00 9,8 9,5 0,6
13.10.2019 19:00:00 9,9 9,4 0,6
13.10.2019 18:00:00 10,3 9,7 0,4
13.10.2019 17:00:00 10,5 9,8 0,8
13.10.2019 16:00:00 10,9 10,0 0,6
13.10.2019 15:00:00 11,0 9,9 0,2
13.10.2019 14:00:00 10,4 9,4 0,0
13.10.2019 13:00:00 9,9 8,7 0,0
13.10.2019 12:00:00 9,0 8,4 0,0
13.10.2019 11:00:00 7,6 7,3 0,0
13.10.2019 10:00:00 6,6 6,3 0,0
13.10.2019 09:00:00 5,9 5,6 0,0
13.10.2019 08:00:00 5,6 5,1 0,0
13.10.2019 07:00:00 5,7 5,0 0,0
13.10.2019 06:00:00 6,6 5,6 0,0
13.10.2019 05:00:00 7,4 5,9 0,0
13.10.2019 04:00:00 8,6 6,2 0,0
13.10.2019 03:00:00 9,1 6,8 0,0
13.10.2019 02:00:00 8,4 6,5 0,0
13.10.2019 01:00:00 8,8 6,3 0,0
13.10.2019 00:00:00 9,1 6,8 0,0
12.10.2019 23:00:00 8,3 6,7 0,0
12.10.2019 22:00:00 8,6 6,6 0,0
12.10.2019 21:00:00 8,9 6,7 0,0
12.10.2019 20:00:00 8,1 5,8 0,0
12.10.2019 19:00:00 9,5 6,0 0,0
12.10.2019 18:00:00 11,3 6,0 0,0
12.10.2019 17:00:00 12,2 7,0 0,0
12.10.2019 16:00:00 11,9 6,7 0,0
12.10.2019 15:00:00 14,1 6,2 0,0
12.10.2019 14:00:00 13,7 6,3 0,0
12.10.2019 13:00:00 14,5 7,2 0,0
12.10.2019 12:00:00 12,9 6,9 0,0
12.10.2019 11:00:00 12,4 6,6 0,0
12.10.2019 10:00:00 10,3 6,6 0,0
12.10.2019 09:00:00 8,8 6,1 0,0
12.10.2019 08:00:00 8,1 6,0 0,0
12.10.2019 07:00:00 7,9 5,3 0,0
12.10.2019 06:00:00 7,2 4,9 0,0
12.10.2019 05:00:00 8,7 6,0 0,0
12.10.2019 04:00:00 8,9 6,0 0,0
12.10.2019 03:00:00 10,1 6,2 0,0
12.10.2019 02:00:00 10,3 6,0 0,0
12.10.2019 01:00:00 10,5 5,9 0,0
12.10.2019 00:00:00 10,0 5,7 0,0
11.10.2019 23:00:00 10,2 5,6 0,0
11.10.2019 22:00:00 10,3 5,8 0,0
11.10.2019 21:00:00 10,8 6,5 0,0
11.10.2019 20:00:00 10,4 6,2 0,0
11.10.2019 19:00:00 10,7 6,8 0,0
11.10.2019 18:00:00 11,3 6,6 0,0
11.10.2019 17:00:00 12,2 6,1 0,0
11.10.2019 16:00:00 13,7 6,3 0,0
11.10.2019 15:00:00 14,1 6,6 0,0
11.10.2019 14:00:00 14,2 6,1 0,0
11.10.2019 13:00:00 14,6 6,0 0,0
11.10.2019 12:00:00 13,7 6,6 0,0
11.10.2019 11:00:00 12,9 6,5 0,0
11.10.2019 10:00:00 11,8 6,7 0,0
11.10.2019 09:00:00 11,1 6,5 0,0
11.10.2019 08:00:00 10,1 6,2 0,0
11.10.2019 07:00:00 10,4 5,8 0,0
11.10.2019 06:00:00 10,3 6,4 0,0
11.10.2019 05:00:00 10,5 6,9 0,0
11.10.2019 04:00:00 11,3 7,2 0,0
11.10.2019 03:00:00 12,0 8,5 0,0
11.10.2019 02:00:00 12,3 9,1 0,0
11.10.2019 01:00:00 12,4 9,2 0,0
11.10.2019 00:00:00 12,7 9,3 0,0
10.10.2019 23:00:00 12,4 8,4 0,0
10.10.2019 22:00:00 12,2 8,7 0,0
10.10.2019 21:00:00 12,6 8,6 0,0
10.10.2019 20:00:00 12,9 8,9 0,0
10.10.2019 19:00:00 12,8 9,8 0,0
10.10.2019 18:00:00 11,6 9,3 0,0
10.10.2019 17:00:00 11,0 8,9 0,0
10.10.2019 16:00:00 11,0 8,3 0,0
10.10.2019 15:00:00 12,1 7,7 0,0
10.10.2019 14:00:00 12,2 6,8 0,0
10.10.2019 13:00:00 12,2 7,2 0,0
10.10.2019 12:00:00 12,4 7,3 0,0
10.10.2019 11:00:00 13,1 7,9 0,0
10.10.2019 10:00:00 11,8 7,7 0,0
10.10.2019 09:00:00 10,9 7,4 0,0
10.10.2019 08:00:00 10,1 7,1 0,0
10.10.2019 07:00:00 9,9 7,0 0,0
10.10.2019 06:00:00 9,9 6,8 0,0
10.10.2019 05:00:00 10,2 6,5 0,0
10.10.2019 04:00:00 10,1 6,2 0,0
10.10.2019 03:00:00 10,2 6,2 0,0
10.10.2019 02:00:00 10,1 6,3 0,0
10.10.2019 01:00:00 9,9 5,9 0,0
10.10.2019 00:00:00 9,5 5,5 0,0
09.10.2019 23:00:00 9,3 6,0 0,0
09.10.2019 22:00:00 9,1 5,6 0,0
09.10.2019 21:00:00 9,3 5,9 0,0
09.10.2019 20:00:00 9,2 5,2 0,0
09.10.2019 19:00:00 9,0 5,4 0,0
09.10.2019 18:00:00 9,8 5,6 0,0
09.10.2019 17:00:00 11,1 5,2 0,0
09.10.2019 16:00:00 12,3 5,9 0,0
09.10.2019 15:00:00 12,3 5,7 0,0
09.10.2019 14:00:00 12,1 6,5 0,0
09.10.2019 13:00:00 12,8 7,2 0,0
09.10.2019 12:00:00 12,8 7,7 0,0
09.10.2019 11:00:00 10,9 6,6 0,0
09.10.2019 10:00:00 10,2 6,4 0,0
09.10.2019 09:00:00 9,8 6,2 0,0
09.10.2019 08:00:00 9,9 6,4 0,0
09.10.2019 07:00:00 9,9 6,4 0,0
09.10.2019 06:00:00 9,6 5,9 0,0
09.10.2019 05:00:00 10,0 6,4 0,0
09.10.2019 04:00:00 9,7 6,2 0,0
09.10.2019 03:00:00 10,0 6,7 0,0
09.10.2019 02:00:00 10,3 6,8 0,0
09.10.2019 01:00:00 10,7 7,0 0,0
09.10.2019 00:00:00 10,3 6,9 0,0
08.10.2019 23:00:00 10,7 7,0 0,0
08.10.2019 22:00:00 10,9 7,0 0,0
08.10.2019 21:00:00 10,5 6,9 0,0
08.10.2019 20:00:00 10,7 6,0 0,0
08.10.2019 19:00:00 11,5 7,3 0,0

tt = Température de l'air
td = dewpoint
rr = Quantités de précipitations

stations d'obs. à proximité